Terug naar catalogus

MIDAS 3 DEB

LostPO
NORAD 25793·DEBRIS·🇺🇸 United States

Gelanceerd Jul 12, 1961 vanaf Vandenberg Space Force Base

Loading…

Volgende Passages (komende 24 uur)

TLE

VerouderdSource: Space-Track

Epoch: May 18, 2026, 15:17 UTC

1 25793U 61018F   26138.63704879  .00000017  00000-0  55468-2 0  9994
2 25793  91.1529 217.9790 0126187 112.4845 248.9444  8.93209216399310

Volg MIDAS 3 DEB in realtime met AllMySat

Download on the App Store